CZ-6A DEB, 54558

Orbit data source: Space-Track

CZ-6A DEB, 54558 is space debris in SSO originally from a launch on Fri, 11 Nov 2022 UTC launched from the Taiyaun Space Center, China (TSC). Debris objects in space refer to the collection of defunct objects orbiting the Earth. Examples of debris include non-operational satellites, rocket bodies, and fragments generated from explosions, collisions, or faulty payload assembly.

Loading next visibility...
Identifier
54558, 2022-151LJ
Orbit
SSO
Country
Flag of CNCN / PRC
Related business
Manufacturer
SAST
Mission
Spacecraft
Bus & Motor
Unknown
Mass
Unknown
Launch date (UTC)
2022-11-11 (3 years ago)
Launch vehicle
Unknown
Launch site
Taiyaun Space Center, China (TSC)
Object type
Payload
Rocket body
Debris
Shape & HBR
Unknown shape, 0.1 m
Radar Cross Section
Small (<0.1 m²)

Expand to show TLE details & history
Last TLE update: 13 hours ago

TLE from 13 hours ago
0 CZ-6A DEB
1 54558U 22151LJ  25351.53150244  .00000850  00000-0  41960-3 0  9994
2 54558  98.7968   1.6386 0056341 153.7703 206.6346 14.19277699159990
Epoch: 2025-12-17T12:45Z
TLE epoch observation values (Epoch: 2025-12-17T12:45:21.810Z)
Latitude
Longitude
83.8977°
Altitude
867.051 km
Speed
7.4 km/s
True Right ascension
00h 06m 33s
True Declination
0° 00' 00"
Sunlit
Object was in daylight at epoch
Visualization orbit readout
Latitude
Unknown
Longitude
Unknown
Altitude
Unknown
Speed
Unknown
Apparent Right ascension
Unknown
Apparent Declination
Unknown
Sunlit
N/A
Visualization observer readout
Local Sidereal Time
00:27:10
Azimuth
Unknown
Elevation
Unknown
Doppler factor
Unknown
Orbital elements
Apogee altitude
865.543 km
Perigee altitude
784.377 km
Semi-major axis
7,203.097 km
Eccentricity
0.00563
Inclination
98.7968°
RAAN
1.6386°
Arg. of periapsis
153.7703°
True anomaly
206.34698°
Mean anomaly
206.6346°
Eccentric anomaly
206.49061°
Mean motion
3.55029 °/min
Orbital period
101.4 mins
BSTAR
0.0004196
Loading maneuver chart data...
Computing Atmospheric mass density...
Loading historical data...
Loading historical data...
Loading historical data...
Loading historical data...
Loading historical data...
Loading historical data...
Loading historical data...

Documentation

Showing up to 5 results
|